Wind_Speed
17 17 15 16 16 16 16 16 16 16 15 14 16 19 21 23 23 20 18 19 19 17 15 12 8 7 10 15 19 21 23 25 25 24 22 20 19 17 15 13 12 11 10 8
18 17 18 19 18 17 18 18 17 17 15 15 16 18 21 22 21 18 17 17 16 15 13 10 6 4 9 13 18 20 22 23 23 23 22 21 20 17 15 14 13 12 10 9
17 18 22 20 19 18 18 19 18 17 15 14 16 16 20 20 19 17 16 15 15 13 12 10 5 2 8 13 15 18 21 21 22 23 22 21 19 17 16 15 13 12 11 10
18 20 22 20 19 19 18 19 18 17 15 14 15 16 17 18 19 18 15 14 14 12 11 9 5 2 6 11 13 17 19 21 22 22 21 20 19 17 17 15 14 13 12 12
17 21 22 19 18 19 18 18 18 17 14 13 13 15 15 16 18 17 14 14 13 12 10 8 5 2 3 8 11 15 18 20 21 21 21 20 18 17 16 15 14 13 13 13
18 21 20 17 17 19 17 17 17 16 14 12 12 13 14 15 17 15 13 13 12 11 9 7 5 3 2 6 10 13 16 18 20 20 19 18 17 16 16 15 14 13 13 13
18 19 19 17 17 18 18 17 17 16 13 11 11 12 13 14 16 14 12 12 12 10 8 6 4 2 2 4 8 11 14 17 18 18 18 17 17 16 15 14 14 13 14 14
17 16 16 15 15 17 19 18 18 17 15 12 11 12 12 13 14 14 12 11 11 10 8 6 3 1 2 3 6 9 13 15 16 17 18 17 17 16 15 15 14 14 14 15
18 16 17 16 16 18 20 20 20 19 18 16 13 11 10 12 12 13 12 11 10 9 8 5 3 1 1 2 4 7 11 12 14 15 16 17 16 16 16 15 15 15 15 16
21 19 19 20 20 20 21 21 21 21 20 18 14 11 12 12 12 13 11 10 11 10 8 5 3 2 2 2 3 5 7 9 11 15 16 16 16 17 16 16 16 16 16 17
24 22 21 22 22 22 23 23 23 23 22 21 18 12 12 12 11 11 10 10 11 10 8 6 5 4 4 3 4 5 7 9 10 13 15 16 17 17 16 17 17 18 18 18
27 25 23 24 25 26 26 26 25 25 24 24 22 15 13 12 12 12 12 12 12 11 9 7 6 5 5 5 6 6 7 8 10 11 13 15 17 18 18 19 19 19 19 19
30 29 27 26 26 27 28 28 28 28 28 27 25 20 15 14 14 14 13 12 12 11 10 9 7 7 6 7 8 8 9 9 10 11 13 15 17 17 18 19 19 18 19 20
34 33 32 31 29 29 30 30 30 31 31 30 28 24 20 19 16 15 14 13 13 12 11 10 10 9 9 8 9 9 10 10 11 13 14 16 17 18 19 19 20 20 20 21
39 39 38 38 37 36 35 34 34 34 34 34 30 27 23 21 19 16 15 15 14 13 12 12 12 12 11 10 10 11 11 12 12 13 14 16 18 19 19 20 20 20 21 23
42 43 44 43 42 43 41 38 37 37 36 35 33 29 26 23 20 18 17 17 17 16 15 14 14 13 14 13 12 13 13 14 14 14 14 15 16 17 19 21 21 22 23 24
41 43 45 45 44 44 44 39 39 39 38 37 35 32 29 27 24 22 22 19 19 18 17 16 16 16 15 14 14 14 15 14 15 15 15 16 17 16 17 19 21 23 25 26
37 39 41 43 42 44 42 40 39 38 37 37 35 33 31 29 27 26 24 23 22 21 19 18 17 17 17 16 16 16 16 14 14 15 16 16 17 17 18 19 21 23 25 27
33 34 36 38 40 41 39 38 37 38 37 35 35 35 34 32 30 28 27 26 25 24 23 21 19 18 18 18 18 17 18 17 17 17 18 19 20 20 21 22 24 25 27 29
30 32 33 35 37 38 35 34 35 36 35 33 34 34 34 33 31 28 28 28 27 26 25 24 23 21 20 20 19 19 19 19 19 20 21 22 23 24 24 26 27 29 30 32
28 29 30 31 32 33 32 31 31 33 31 30 32 33 33 33 31 30 30 30 29 29 27 25 25 24 23 22 22 21 21 21 22 23 23 24 25 26 28 29 30 31 32 33
25 25 26 28 29 28 27 28 28 28 28 27 28 29 31 32 31 31 31 31 30 29 28 26 26 25 24 23 23 23 23 23 24 25 25 27 27 28 29 30 31 32 33 34
21 22 23 24 25 25 24 24 23 23 23 24 24 26 27 29 30 30 29 29 28 28 28 26 25 25 24 24 23 24 24 24 25 27 27 28 29 30 31 32 33 34 34 35
18 18 19 20 20 20 20 21 20 20 20 20 21 22 24 25 25 26 26 26 26 27 26 25 26 25 24 24 24 24 25 26 27 28 29 30 31 32 33 34 35 35 36 37
15 15 16 16 15 14 15 16 16 16 16 16 17 19 20 22 24 25 24 24 24 24 26 25 25 24 24 24 24 25 26 27 28 29 30 32 33 34 35 36 37 38 39 40
13 13 13 11 11 11 11 12 12 13 13 14 15 17 18 19 21 22 23 23 24 23 22 21 23 23 23 23 25 26 27 28 29 31 32 33 34 35 36 38 39 40 42 43
Wind_Direction
279 268 258 252 252 254 263 273 282 294 308 322 336 343 342 340 336 334 333 333 333 330 327 324 307 264 225 207 203 201 202 201 204 205 208 211 213 214 216 219 224 226 227 229
274 262 249 249 251 255 266 275 285 295 307 325 340 346 343 343 342 339 339 337 335 334 332 332 319 262 208 197 197 198 198 199 201 203 204 207 208 212 216 221 226 224 226 224
268 252 249 250 252 257 268 279 288 299 310 326 337 350 348 349 349 346 344 342 340 338 341 338 325 248 193 189 194 197 196 197 200 201 204 205 207 211 216 220 221 221 222 221
260 253 252 251 253 260 264 276 286 297 307 323 336 347 352 353 352 349 345 344 344 344 345 349 344 293 193 187 191 193 193 198 198 199 203 205 207 212 216 218 219 221 222 222
254 248 250 250 250 257 264 272 281 290 302 319 335 344 351 353 353 351 348 344 341 342 346 355 358 4 186 186 190 192 194 195 195 200 206 206 207 209 212 216 218 220 221 221
247 246 249 249 248 255 263 270 279 285 297 314 327 337 349 349 353 353 349 345 341 338 343 353 5 27 150 176 180 183 189 192 196 200 204 206 208 209 214 218 219 220 221 222
241 242 246 244 245 252 259 267 275 282 291 308 320 331 343 345 348 351 349 347 346 343 339 342 358 43 115 171 182 186 187 190 195 201 205 208 213 214 217 220 223 225 227 228
235 235 238 238 239 244 253 261 270 281 288 296 313 327 336 342 345 347 344 345 347 345 343 343 360 70 124 168 180 188 193 196 198 202 203 209 214 216 220 224 227 231 234 236
229 223 228 227 226 234 241 251 262 274 284 291 302 321 332 335 339 339 336 341 341 337 335 335 327 303 197 195 193 195 195 200 204 206 208 213 217 221 225 228 231 237 241 243
234 226 226 228 231 236 241 247 256 267 279 285 295 311 332 329 333 332 325 330 334 326 322 313 308 288 253 233 209 195 202 207 210 211 215 219 223 226 231 234 238 243 245 249
246 239 230 233 236 239 244 249 255 262 271 280 288 303 318 318 322 327 322 320 322 322 309 296 286 277 255 251 227 215 218 218 218 220 223 229 233 234 236 238 242 247 250 252
257 253 243 240 243 246 249 253 257 262 269 276 284 296 305 308 312 314 310 304 309 313 302 290 280 271 256 245 239 229 232 231 229 229 231 233 235 237 240 244 248 251 253 255
262 263 259 254 251 252 253 256 260 265 270 275 281 290 295 298 303 306 303 297 300 304 299 287 277 270 263 254 248 246 244 240 234 233 237 240 242 244 247 249 252 254 257 259
262 265 266 264 261 259 258 260 262 264 268 272 276 282 285 291 293 295 294 289 293 297 293 287 282 276 270 260 256 258 250 245 240 239 242 246 247 249 251 254 256 261 263 264
260 263 266 268 268 266 263 263 263 264 267 270 274 276 279 284 284 286 286 284 283 286 285 283 281 273 269 265 261 260 254 251 247 248 250 252 254 253 256 259 259 263 266 268
259 262 265 267 269 269 266 264 265 266 267 269 271 272 274 274 275 277 276 278 277 276 276 277 275 269 263 260 262 263 264 257 256 258 257 261 259 258 259 260 261 265 269 271
261 263 264 266 267 268 268 268 268 268 267 267 268 269 268 266 268 269 268 269 269 269 268 271 269 265 260 260 262 263 264 266 263 263 264 266 269 269 271 268 267 270 271 272
263 263 265 267 267 268 271 270 268 267 266 266 264 262 262 261 262 263 262 263 263 263 262 263 264 261 258 259 262 263 267 268 268 268 270 273 276 277 275 274 270 271 272 273
263 264 266 267 268 270 271 271 269 267 264 262 260 259 260 257 259 260 259 260 260 259 257 258 257 256 256 257 258 262 266 269 270 272 274 275 277 278 278 277 276 276 276 277
265 265 267 269 270 271 272 270 268 266 265 261 258 256 256 255 255 256 256 257 255 255 255 255 254 253 253 254 258 263 267 269 272 274 276 278 279 279 279 279 280 280 279 280
266 267 268 270 271 272 273 271 268 265 263 258 254 251 249 249 249 250 252 253 252 252 250 250 249 250 251 253 256 261 266 270 273 275 277 279 280 281 282 283 283 283 283 283
266 267 268 269 271 274 274 272 268 265 259 254 249 246 243 244 245 247 248 250 252 247 243 243 246 247 251 254 257 262 268 272 275 277 279 281 283 284 285 285 285 285 285 285
265 266 267 267 270 272 270 269 267 262 255 250 245 242 239 240 241 241 244 246 245 241 240 239 242 246 250 255 260 265 270 274 278 280 282 283 284 285 286 287 287 287 288 288
263 266 267 267 269 269 264 263 261 257 251 245 241 236 236 233 231 233 235 241 241 239 236 239 242 247 252 257 265 271 275 278 281 283 285 286 287 288 290 290 291 291 291 291
263 268 270 271 269 265 262 257 252 247 238 232 228 223 224 222 225 227 230 232 236 238 235 240 244 247 254 262 269 275 278 281 284 286 287 288 290 291 291 292 292 293 293 292
260 268 270 263 265 265 260 251 241 232 224 220 215 213 215 219 221 222 223 227 231 232 233 239 245 252 259 266 273 277 280 283 286 287 289 290 291 292 293 293 293 293 293 293
Height
5867 5868 5867 5866 5866 5867 5866 5867 5866 5864 5862 5860 5858 5855 5852 5847 5843 5840 5837 5834 5830 5827 5824 5820 5817 5816 5817 5819 5823 5827 5832 5837 5841 5846 5850 5853 5856 5859 5862 5864 5866 5867 5869 5870
5864 5864 5863 5862 5863 5864 5864 5864 5863 5863 5860 5858 5856 5854 5850 5846 5842 5839 5836 5833 5829 5826 5823 5819 5816 5815 5815 5818 5821 5825 5830 5835 5840 5844 5847 5851 5854 5857 5860 5862 5864 5865 5867 5868
5860 5861 5858 5859 5860 5861 5862 5862 5861 5860 5859 5857 5855 5853 5849 5845 5841 5838 5835 5832 5829 5826 5823 5820 5817 5815 5815 5817 5820 5824 5828 5832 5838 5842 5845 5849 5852 5855 5858 5860 5862 5863 5865 5867
5855 5855 5855 5857 5858 5858 5859 5859 5859 5858 5857 5855 5854 5851 5849 5845 5841 5838 5835 5832 5829 5827 5824 5821 5819 5818 5816 5818 5820 5823 5827 5831 5835 5839 5843 5847 5850 5853 5856 5858 5860 5862 5863 5865
5852 5851 5852 5854 5855 5855 5857 5857 5857 5856 5855 5854 5852 5850 5849 5845 5841 5838 5835 5832 5829 5827 5825 5823 5820 5819 5819 5819 5820 5822 5826 5830 5834 5839 5842 5845 5848 5851 5854 5856 5858 5860 5862 5864
5847 5847 5849 5851 5852 5852 5854 5854 5854 5854 5853 5853 5851 5849 5847 5844 5841 5838 5835 5832 5830 5827 5826 5824 5822 5821 5820 5821 5822 5824 5826 5830 5834 5837 5841 5844 5847 5850 5853 5855 5856 5858 5860 5862
5843 5844 5846 5848 5849 5850 5851 5852 5852 5851 5851 5851 5849 5848 5847 5843 5840 5838 5835 5833 5830 5828 5827 5825 5824 5822 5822 5822 5823 5825 5827 5830 5833 5836 5839 5842 5846 5848 5851 5853 5855 5857 5859 5860
5839 5841 5842 5844 5846 5847 5847 5848 5849 5849 5848 5848 5847 5846 5846 5843 5840 5837 5835 5833 5831 5829 5828 5826 5825 5824 5824 5824 5825 5826 5827 5829 5832 5835 5838 5841 5844 5847 5849 5851 5853 5855 5857 5858
5835 5837 5838 5839 5840 5842 5843 5844 5845 5845 5845 5845 5845 5845 5844 5842 5839 5837 5835 5833 5832 5830 5828 5827 5826 5825 5825 5825 5825 5826 5827 5829 5831 5834 5837 5840 5842 5845 5847 5849 5851 5853 5854 5856
5830 5833 5834 5835 5836 5837 5839 5840 5841 5841 5841 5841 5842 5842 5842 5840 5838 5836 5834 5833 5832 5830 5828 5827 5826 5825 5825 5825 5826 5826 5828 5829 5830 5833 5836 5838 5840 5842 5844 5846 5848 5849 5851 5852
5826 5829 5831 5832 5832 5834 5835 5836 5836 5837 5837 5837 5838 5841 5840 5838 5837 5835 5834 5832 5831 5829 5828 5827 5826 5826 5826 5826 5826 5827 5828 5828 5830 5831 5834 5836 5837 5839 5841 5842 5844 5846 5847 5848
5820 5823 5825 5827 5829 5829 5830 5831 5832 5833 5833 5833 5834 5839 5836 5836 5834 5833 5832 5831 5829 5828 5827 5826 5826 5825 5825 5825 5825 5826 5826 5827 5828 5829 5831 5833 5835 5836 5838 5839 5841 5842 5843 5844
5814 5816 5819 5821 5825 5825 5825 5826 5827 5827 5828 5828 5829 5834 5833 5833 5832 5831 5830 5829 5828 5827 5826 5825 5825 5825 5824 5824 5824 5824 5824 5825 5826 5827 5829 5830 5832 5833 5834 5836 5837 5837 5838 5839
5808 5809 5812 5814 5815 5817 5818 5819 5820 5821 5821 5822 5824 5826 5828 5828 5828 5827 5827 5826 5825 5825 5824 5823 5823 5823 5822 5822 5822 5822 5822 5822 5823 5824 5825 5826 5828 5829 5830 5831 5832 5833 5833 5834
5801 5802 5803 5804 5806 5807 5809 5811 5812 5813 5814 5815 5817 5819 5822 5823 5823 5823 5823 5823 5822 5822 5821 5821 5821 5820 5820 5820 5820 5820 5819 5819 5820 5821 5821 5822 5823 5824 5826 5826 5827 5828 5828 5828
5792 5793 5793 5795 5797 5797 5798 5801 5803 5804 5805 5807 5809 5812 5815 5816 5817 5818 5818 5819 5819 5818 5818 5818 5817 5817 5817 5817 5817 5817 5817 5817 5817 5817 5818 5819 5819 5819 5820 5821 5822 5822 5822 5822
5783 5783 5783 5784 5786 5785 5786 5792 5794 5794 5796 5798 5800 5805 5806 5809 5810 5812 5813 5814 5814 5814 5814 5814 5814 5814 5814 5814 5814 5815 5814 5814 5814 5814 5815 5815 5816 5816 5816 5816 5816 5817 5817 5816
5774 5774 5773 5773 5775 5774 5780 5781 5782 5783 5785 5788 5790 5794 5797 5800 5802 5804 5806 5807 5808 5809 5810 5810 5810 5810 5810 5810 5811 5811 5811 5811 5811 5811 5811 5811 5811 5811 5811 5811 5811 5811 5810 5809
5764 5765 5764 5764 5763 5764 5768 5769 5770 5772 5774 5777 5780 5783 5787 5790 5793 5796 5798 5800 5802 5802 5803 5804 5805 5805 5806 5806 5807 5807 5807 5807 5807 5807 5807 5807 5807 5806 5806 5806 5805 5803 5802 5801
5756 5756 5756 5755 5754 5754 5759 5759 5759 5761 5763 5767 5769 5773 5777 5780 5784 5788 5790 5792 5793 5795 5796 5798 5799 5800 5800 5801 5802 5802 5803 5803 5803 5803 5802 5802 5801 5800 5799 5798 5797 5795 5794 5792
5748 5748 5748 5747 5745 5746 5749 5749 5750 5752 5755 5757 5759 5762 5766 5770 5775 5778 5780 5783 5785 5787 5789 5790 5792 5794 5794 5795 5796 5797 5797 5797 5797 5796 5796 5795 5794 5793 5792 5790 5788 5786 5784 5782
5741 5741 5740 5739 5739 5741 5739 5739 5741 5742 5743 5746 5749 5752 5756 5760 5764 5768 5771 5774 5776 5777 5780 5783 5785 5787 5788 5789 5790 5790 5790 5790 5790 5789 5788 5787 5786 5785 5783 5781 5779 5777 5775 5772
5735 5735 5733 5733 5734 5733 5731 5731 5732 5733 5735 5737 5740 5744 5748 5751 5755 5759 5762 5765 5767 5770 5773 5775 5778 5780 5782 5783 5783 5783 5784 5783 5783 5782 5780 5779 5777 5776 5774 5771 5769 5767 5764 5761
5729 5728 5727 5727 5726 5725 5725 5725 5725 5726 5728 5730 5733 5736 5740 5743 5747 5751 5754 5758 5760 5763 5766 5769 5771 5773 5774 5775 5776 5776 5776 5776 5775 5773 5772 5770 5768 5766 5764 5761 5759 5756 5753 5750
5723 5723 5722 5721 5721 5720 5720 5719 5720 5721 5722 5724 5727 5730 5733 5737 5741 5744 5748 5751 5754 5757 5759 5762 5764 5766 5767 5768 5769 5769 5768 5767 5766 5764 5763 5761 5758 5756 5754 5751 5748 5745 5742 5739
5719 5719 5718 5718 5717 5716 5716 5716 5716 5717 5719 5721 5723 5726 5729 5732 5736 5739 5743 5746 5749 5752 5754 5756 5758 5760 5761 5761 5761 5761 5760 5759 5757 5756 5754 5751 5749 5746 5743 5740 5737 5734 5731 5727